Time,TemperatureF,DewpointF,PressureIn,WindDirection,WindDirectionDegrees,WindSpeedMPH,WindSpeedGustMPH,Humidity,HourlyPrecipIn,Conditions,Clouds,dailyrainin,SolarRadiationWatts/m^2,SoftwareType,DateUTC
2013-02-19 00:00:00,47.8,39.2,29.83,SW,227,16.0,19.0,72,0.12,,,0.07,0,Wunderground v.1.15,2013-02-19 05:00:00,
2013-02-19 00:05:00,47.4,39.5,29.83,SSW,203,8.0,20.0,74,0.17,,,0.01,0,Wunderground v.1.15,2013-02-19 05:05:00,
2013-02-19 00:10:00,46.8,39.3,29.82,SW,227,13.0,22.0,75,0.27,,,0.03,0,Wunderground v.1.15,2013-02-19 05:10:00,
2013-02-19 00:15:00,46.4,39.2,29.82,WSW,242,18.0,23.0,76,0.13,,,0.04,0,Wunderground v.1.15,2013-02-19 05:15:00,
2013-02-19 00:20:00,46.0,39.9,29.82,WSW,238,8.0,17.0,79,0.08,,,0.04,0,Wunderground v.1.15,2013-02-19 05:20:00,
2013-02-19 00:25:00,45.7,39.9,29.82,WSW,254,14.0,18.0,80,0.08,,,0.05,0,Wunderground v.1.15,2013-02-19 05:25:00,
2013-02-19 00:30:00,45.4,39.9,29.82,SSW,207,11.0,16.0,81,0.06,,,0.05,0,Wunderground v.1.15,2013-02-19 05:30:00,
2013-02-19 00:35:00,45.2,40.0,29.82,SSW,206,10.0,16.0,82,0.04,,,0.06,0,Wunderground v.1.15,2013-02-19 05:35:00,
2013-02-19 00:40:00,45.1,40.2,29.82,WSW,247,15.0,15.0,83,0.04,,,0.06,0,Wunderground v.1.15,2013-02-19 05:40:00,
2013-02-19 00:45:00,45.0,40.5,29.82,SW,215,11.0,17.0,84,0.04,,,0.06,0,Wunderground v.1.15,2013-02-19 05:45:00,
2013-02-19 00:50:00,44.9,40.4,29.82,SSW,205,7.0,9.0,84,0.04,,,0.06,0,Wunderground v.1.15,2013-02-19 05:50:00,
2013-02-19 00:55:00,44.9,40.4,29.82,SW,232,10.0,14.0,84,0.00,,,0.06,0,Wunderground v.1.15,2013-02-19 05:55:00,
2013-02-19 01:00:00,45.0,40.5,29.82,SW,232,7.0,11.0,84,0.00,,,0.06,0,Wunderground v.1.15,2013-02-19 06:00:00,
2013-02-19 01:05:00,45.2,40.3,29.82,SW,230,13.0,17.0,83,0.00,,,0.06,0,Wunderground v.1.15,2013-02-19 06:05:00,
2013-02-19 01:10:00,45.2,40.3,29.81,West,271,7.0,11.0,83,0.00,,,0.06,0,Wunderground v.1.15,2013-02-19 06:10:00,
2013-02-19 01:15:00,45.3,40.4,29.82,WSW,244,8.0,17.0,83,0.00,,,0.06,0,Wunderground v.1.15,2013-02-19 06:15:00,
2013-02-19 01:20:00,45.2,40.3,29.82,WSW,254,5.0,12.0,83,0.00,,,0.06,0,Wunderground v.1.15,2013-02-19 06:20:00,
2013-02-19 01:25:00,45.2,40.7,29.81,SW,231,9.0,16.0,84,0.00,,,0.06,0,Wunderground v.1.15,2013-02-19 06:25:00,
2013-02-19 01:30:00,45.2,40.3,29.81,WSW,250,10.0,15.0,83,0.00,,,0.06,0,Wunderground v.1.15,2013-02-19 06:30:00,
2013-02-19 01:35:00,45.2,40.3,29.81,SSW,203,8.0,18.0,83,0.00,,,0.06,0,Wunderground v.1.15,2013-02-19 06:35:00,
2013-02-19 01:40:00,45.2,40.3,29.79,WSW,238,14.0,15.0,83,0.00,,,0.06,0,Wunderground v.1.15,2013-02-19 06:40:00,
2013-02-19 01:45:00,45.2,40.3,29.79,SW,227,21.0,22.0,83,0.00,,,0.06,0,Wunderground v.1.15,2013-02-19 06:45:00,
2013-02-19 01:50:00,45.4,40.2,29.79,SW,231,19.0,19.0,82,0.00,,,0.06,0,Wunderground v.1.15,2013-02-19 06:50:00,
2013-02-19 01:55:00,45.4,39.9,29.78,South,186,11.0,21.0,81,0.00,,,0.06,0,Wunderground v.1.15,2013-02-19 06:55:00,
2013-02-19 02:00:00,45.5,40.0,29.77,West,272,18.0,25.0,81,0.00,,,0.06,0,Wunderground v.1.15,2013-02-19 07:00:00,
2013-02-19 02:05:00,45.7,39.9,29.78,WSW,257,16.0,29.0,80,0.00,,,0.06,0,Wunderground v.1.15,2013-02-19 07:05:00,
2013-02-19 02:10:00,45.8,39.7,29.78,WSW,242,10.0,24.0,79,0.00,,,0.06,0,Wunderground v.1.15,2013-02-19 07:10:00,
2013-02-19 02:15:00,45.9,39.4,29.77,WSW,248,23.0,29.0,78,0.00,,,0.06,0,Wunderground v.1.15,2013-02-19 07:15:00,
2013-02-19 02:20:00,45.9,39.1,29.76,West,259,20.0,27.0,77,0.00,,,0.06,0,Wunderground v.1.15,2013-02-19 07:20:00,
2013-02-19 02:25:00,46.0,39.2,29.76,SW,220,20.0,32.0,77,0.00,,,0.06,0,Wunderground v.1.15,2013-02-19 07:25:00,
2013-02-19 02:30:00,46.1,39.3,29.76,SW,235,21.0,21.0,77,0.00,,,0.06,0,Wunderground v.1.15,2013-02-19 07:30:00,
2013-02-19 02:35:00,46.0,39.2,29.77,WSW,247,12.0,25.0,77,0.00,,,0.06,0,Wunderground v.1.15,2013-02-19 07:35:00,
2013-02-19 02:41:00,45.9,39.1,29.77,WSW,252,19.0,25.0,77,0.00,,,0.06,0,Wunderground v.1.15,2013-02-19 07:41:00,
2013-02-19 02:46:00,45.9,39.1,29.77,WSW,246,12.0,25.0,77,0.00,,,0.06,0,Wunderground v.1.15,2013-02-19 07:46:00,
2013-02-19 02:50:00,45.8,39.0,29.77,WSW,240,16.0,24.0,77,0.00,,,0.06,0,Wunderground v.1.15,2013-02-19 07:50:00,
2013-02-19 02:56:00,45.7,38.9,29.76,West,277,12.0,29.0,77,0.00,,,0.06,0,Wunderground v.1.15,2013-02-19 07:56:00,
2013-02-19 03:01:00,45.5,39.0,29.77,WSW,240,14.0,18.0,78,0.00,,,0.06,0,Wunderground v.1.15,2013-02-19 08:01:00,
2013-02-19 03:06:00,45.4,38.9,29.76,WSW,257,11.0,24.0,78,0.00,,,0.06,0,Wunderground v.1.15,2013-02-19 08:06:00,
2013-02-19 03:11:00,45.4,38.9,29.75,WSW,240,13.0,24.0,78,0.00,,,0.06,0,Wunderground v.1.15,2013-02-19 08:11:00,
2013-02-19 03:16:00,45.2,39.1,29.76,West,259,16.0,25.0,79,0.00,,,0.06,0,Wunderground v.1.15,2013-02-19 08:16:00,
2013-02-19 03:21:00,45.1,39.0,29.75,SW,232,18.0,23.0,79,0.00,,,0.06,0,Wunderground v.1.15,2013-02-19 08:21:00,
2013-02-19 03:26:00,45.1,39.3,29.75,SW,227,17.0,23.0,80,0.00,,,0.06,0,Wunderground v.1.15,2013-02-19 08:26:00,
2013-02-19 03:31:00,44.9,39.1,29.75,WNW,285,11.0,23.0,80,0.00,,,0.06,0,Wunderground v.1.15,2013-02-19 08:31:00,
2013-02-19 03:36:00,44.8,39.0,29.75,SW,231,15.0,23.0,80,0.00,,,0.06,0,Wunderground v.1.15,2013-02-19 08:36:00,
2013-02-19 03:41:00,44.8,39.0,29.75,WSW,248,9.0,17.0,80,0.00,,,0.06,0,Wunderground v.1.15,2013-02-19 08:41:00,
2013-02-19 03:46:00,44.7,38.9,29.75,WSW,245,13.0,21.0,80,0.00,,,0.06,0,Wunderground v.1.15,2013-02-19 08:46:00,
2013-02-19 03:51:00,44.7,39.2,29.75,WSW,239,16.0,21.0,81,0.00,,,0.06,0,Wunderground v.1.15,2013-02-19 08:51:00,
2013-02-19 03:56:00,44.6,39.1,29.75,WSW,257,13.0,21.0,81,0.00,,,0.06,0,Wunderground v.1.15,2013-02-19 08:56:00,
2013-02-19 04:01:00,44.5,39.0,29.75,West,265,14.0,19.0,81,0.00,,,0.06,0,Wunderground v.1.15,2013-02-19 09:01:00,
2013-02-19 04:06:00,44.6,39.1,29.75,West,271,13.0,22.0,81,0.00,,,0.06,0,Wunderground v.1.15,2013-02-19 09:06:00,
2013-02-19 04:11:00,44.6,39.1,29.75,WSW,238,13.0,17.0,81,0.00,,,0.06,0,Wunderground v.1.15,2013-02-19 09:11:00,
2013-02-19 04:16:00,44.6,39.1,29.75,WSW,248,11.0,22.0,81,0.00,,,0.06,0,Wunderground v.1.15,2013-02-19 09:16:00,
2013-02-19 04:21:00,44.5,39.3,29.75,WSW,250,11.0,14.0,82,0.00,,,0.06,0,Wunderground v.1.15,2013-02-19 09:21:00,
2013-02-19 04:26:00,44.5,39.3,29.75,WSW,245,25.0,27.0,82,0.00,,,0.07,0,Wunderground v.1.15,2013-02-19 09:26:00,
2013-02-19 04:31:00,44.3,39.8,29.76,WSW,242,18.0,24.0,84,0.00,,,0.07,0,Wunderground v.1.15,2013-02-19 09:31:00,
2013-02-19 04:36:00,44.1,39.9,29.76,WSW,257,15.0,24.0,85,0.00,,,0.07,0,Wunderground v.1.15,2013-02-19 09:36:00,
2013-02-19 04:41:00,43.9,40.0,29.76,WSW,245,13.0,20.0,86,0.05,,,0.08,0,Wunderground v.1.15,2013-02-19 09:41:00,
2013-02-19 04:46:00,43.8,39.9,29.76,WSW,240,11.0,21.0,86,0.05,,,0.08,0,Wunderground v.1.15,2013-02-19 09:46:00,
2013-02-19 04:51:00,43.6,40.0,29.77,WSW,244,13.0,21.0,87,0.04,,,0.09,0,Wunderground v.1.15,2013-02-19 09:51:00,
2013-02-19 04:56:00,43.6,40.3,29.77,WSW,249,15.0,22.0,88,0.04,,,0.09,0,Wunderground v.1.15,2013-02-19 09:56:00,
2013-02-19 05:01:00,43.5,40.5,29.78,West,261,12.0,17.0,89,0.07,,,0.10,0,Wunderground v.1.15,2013-02-19 10:01:00,
2013-02-19 05:06:00,43.6,40.6,29.78,West,274,10.0,23.0,89,0.46,,,0.11,0,Wunderground v.1.15,2013-02-19 10:06:00,
2013-02-19 05:11:00,43.4,40.4,29.79,West,281,9.0,21.0,89,0.16,,,0.13,0,Wunderground v.1.15,2013-02-19 10:11:00,
2013-02-19 05:16:00,43.2,39.9,29.80,NW,319,12.0,22.0,88,0.14,,,0.14,0,Wunderground v.1.15,2013-02-19 10:16:00,
2013-02-19 05:21:00,42.0,37.8,29.81,WNW,299,13.0,19.0,85,0.08,,,0.14,0,Wunderground v.1.15,2013-02-19 10:21:00,
2013-02-19 05:26:00,41.0,37.1,29.81,WNW,289,13.0,19.0,86,0.05,,,0.14,0,Wunderground v.1.15,2013-02-19 10:26:00,
2013-02-19 05:31:00,40.4,36.8,29.81,NW,306,11.0,16.0,87,0.04,,,0.15,0,Wunderground v.1.15,2013-02-19 10:31:00,
2013-02-19 05:36:00,39.8,36.5,29.81,NW,304,11.0,16.0,88,0.04,,,0.15,0,Wunderground v.1.15,2013-02-19 10:36:00,
2013-02-19 05:41:00,39.3,36.0,29.82,NNW,327,9.0,14.0,88,0.04,,,0.15,0,Wunderground v.1.15,2013-02-19 10:41:00,
2013-02-19 05:46:00,39.0,35.7,29.83,NW,321,18.0,18.0,88,0.04,,,0.15,0,Wunderground v.1.15,2013-02-19 10:46:00,
2013-02-19 05:51:00,38.4,34.9,29.83,NW,312,10.0,17.0,87,0.00,,,0.16,0,Wunderground v.1.15,2013-02-19 10:51:00,
2013-02-19 05:56:00,38.1,34.9,29.83,NW,324,13.0,17.0,88,0.00,,,0.16,0,Wunderground v.1.15,2013-02-19 10:56:00,
2013-02-19 06:01:00,37.9,34.9,29.82,NNW,331,10.0,12.0,89,0.00,,,0.16,0,Wunderground v.1.15,2013-02-19 11:01:00,
2013-02-19 06:06:00,37.7,34.8,29.83,WNW,303,4.0,14.0,89,0.00,,,0.16,0,Wunderground v.1.15,2013-02-19 11:06:00,
2013-02-19 06:11:00,37.6,34.9,29.83,WNW,300,8.0,9.0,90,0.00,,,0.16,0,Wunderground v.1.15,2013-02-19 11:11:00,
2013-02-19 06:16:00,37.6,34.9,29.83,WNW,298,6.0,10.0,90,0.00,,,0.16,0,Wunderground v.1.15,2013-02-19 11:16:00,
2013-02-19 06:21:00,37.5,34.6,29.83,WNW,292,7.0,15.0,89,0.00,,,0.16,0,Wunderground v.1.15,2013-02-19 11:21:00,
2013-02-19 06:26:00,37.4,34.5,29.84,WNW,288,10.0,16.0,89,0.00,,,0.16,0,Wunderground v.1.15,2013-02-19 11:26:00,
2013-02-19 06:31:00,37.4,34.5,29.84,WNW,289,7.0,12.0,89,0.00,,,0.16,0,Wunderground v.1.15,2013-02-19 11:31:00,
2013-02-19 06:36:00,37.3,34.4,29.85,West,281,12.0,17.0,89,0.00,,,0.16,0,Wunderground v.1.15,2013-02-19 11:36:00,
2013-02-19 06:41:00,37.2,34.3,29.85,NW,312,8.0,12.0,89,0.00,,,0.16,0,Wunderground v.1.15,2013-02-19 11:41:00,
2013-02-19 06:46:00,37.2,34.3,29.85,WNW,301,9.0,12.0,89,0.00,,,0.16,0,Wunderground v.1.15,2013-02-19 11:46:00,
2013-02-19 06:51:00,37.1,34.4,29.85,WNW,303,5.0,13.0,90,0.00,,,0.16,0,Wunderground v.1.15,2013-02-19 11:51:00,
2013-02-19 06:56:00,37.1,34.2,29.85,WNW,296,8.0,15.0,89,0.00,,,0.16,0,Wunderground v.1.15,2013-02-19 11:56:00,
2013-02-19 07:01:00,37.2,34.3,29.86,WNW,291,8.0,14.0,89,0.00,,,0.16,0,Wunderground v.1.15,2013-02-19 12:01:00,
2013-02-19 07:06:00,37.3,34.4,29.86,NNW,339,5.0,14.0,89,0.00,,,0.16,0,Wunderground v.1.15,2013-02-19 12:06:00,
2013-02-19 07:11:00,37.3,34.4,29.86,WNW,296,9.0,12.0,89,0.00,,,0.16,0,Wunderground v.1.15,2013-02-19 12:11:00,
2013-02-19 07:16:00,37.3,33.8,29.86,WNW,299,9.0,19.0,87,0.00,,,0.16,0,Wunderground v.1.15,2013-02-19 12:16:00,
2013-02-19 07:21:00,37.3,33.5,29.87,WNW,286,12.0,17.0,86,0.00,,,0.16,0,Wunderground v.1.15,2013-02-19 12:21:00,
2013-02-19 07:26:00,37.4,33.3,29.87,NW,319,8.0,18.0,85,0.00,,,0.16,0,Wunderground v.1.15,2013-02-19 12:26:00,
2013-02-19 07:31:00,37.4,33.0,29.88,West,269,14.0,20.0,84,0.00,,,0.16,0,Wunderground v.1.15,2013-02-19 12:31:00,
2013-02-19 07:36:00,37.4,32.4,29.88,NW,322,6.0,21.0,82,0.00,,,0.16,0,Wunderground v.1.15,2013-02-19 12:36:00,
2013-02-19 07:41:00,37.4,32.7,29.88,WNW,282,12.0,20.0,83,0.00,,,0.16,7,Wunderground v.1.15,2013-02-19 12:41:00,
2013-02-19 07:46:00,37.3,32.3,29.88,NW,317,7.0,20.0,82,0.00,,,0.16,11,Wunderground v.1.15,2013-02-19 12:46:00,
2013-02-19 07:51:00,37.3,32.0,29.88,NW,307,12.0,14.0,81,0.00,,,0.16,12,Wunderground v.1.15,2013-02-19 12:51:00,
2013-02-19 07:56:00,37.2,31.9,29.89,NW,308,12.0,15.0,81,0.00,,,0.16,16,Wunderground v.1.15,2013-02-19 12:56:00,
2013-02-19 08:02:00,37.1,32.1,29.89,WNW,285,7.0,13.0,82,0.00,,,0.16,19,Wunderground v.1.15,2013-02-19 13:02:00,
2013-02-19 08:07:00,37.0,32.0,29.90,NW,313,13.0,13.0,82,0.00,,,0.16,16,Wunderground v.1.15,2013-02-19 13:07:00,
2013-02-19 08:12:00,36.9,31.9,29.90,NW,311,13.0,15.0,82,0.00,,,0.16,14,Wunderground v.1.15,2013-02-19 13:12:00,
2013-02-19 08:17:00,36.7,31.7,29.90,WNW,296,8.0,16.0,82,0.00,,,0.16,21,Wunderground v.1.15,2013-02-19 13:17:00,
2013-02-19 08:22:00,36.6,31.6,29.90,NW,316,8.0,16.0,82,0.00,,,0.16,54,Wunderground v.1.15,2013-02-19 13:22:00,
2013-02-19 08:27:00,36.5,31.8,29.91,WNW,301,8.0,16.0,83,0.00,,,0.16,44,Wunderground v.1.15,2013-02-19 13:27:00,
2013-02-19 08:32:00,36.5,31.2,29.91,WNW,290,9.0,21.0,81,0.00,,,0.16,35,Wunderground v.1.15,2013-02-19 13:32:00,
2013-02-19 08:37:00,36.1,30.5,29.92,NW,311,12.0,22.0,80,0.00,,,0.16,35,Wunderground v.1.15,2013-02-19 13:37:00,
2013-02-19 08:42:00,35.3,29.4,29.92,NNW,327,20.0,20.0,79,0.00,,,0.16,51,Wunderground v.1.15,2013-02-19 13:42:00,
2013-02-19 08:47:00,34.8,29.0,29.92,WNW,292,12.0,20.0,79,0.00,,,0.16,116,Wunderground v.1.15,2013-02-19 13:47:00,
2013-02-19 08:52:00,34.5,28.7,29.93,WNW,294,9.0,14.0,79,0.00,,,0.16,114,Wunderground v.1.15,2013-02-19 13:52:00,
2013-02-19 08:57:00,34.5,28.3,29.92,WNW,292,11.0,18.0,78,0.00,,,0.16,113,Wunderground v.1.15,2013-02-19 13:57:00,
2013-02-19 09:02:00,34.5,28.0,29.92,NNW,328,9.0,12.0,77,0.00,,,0.16,109,Wunderground v.1.15,2013-02-19 14:02:00,
2013-02-19 09:07:00,34.4,27.6,29.92,NW,313,16.0,19.0,76,0.00,,,0.16,72,Wunderground v.1.15,2013-02-19 14:07:00,
2013-02-19 09:12:00,34.8,27.7,29.92,WNW,302,11.0,16.0,75,0.00,,,0.16,394,Wunderground v.1.15,2013-02-19 14:12:00,
2013-02-19 09:17:00,35.1,27.6,29.93,WNW,283,12.0,16.0,74,0.00,,,0.16,109,Wunderground v.1.15,2013-02-19 14:17:00,
2013-02-19 09:22:00,35.5,28.4,29.93,West,265,14.0,15.0,75,0.00,,,0.16,172,Wunderground v.1.15,2013-02-19 14:22:00,
2013-02-19 09:27:00,35.5,27.7,29.93,WNW,299,10.0,19.0,73,0.00,,,0.16,90,Wunderground v.1.15,2013-02-19 14:27:00,
2013-02-19 09:32:00,35.3,27.8,29.93,NNW,335,5.0,13.0,74,0.00,,,0.16,123,Wunderground v.1.15,2013-02-19 14:32:00,
2013-02-19 09:37:00,35.3,27.8,29.93,West,273,11.0,15.0,74,0.00,,,0.16,107,Wunderground v.1.15,2013-02-19 14:37:00,
2013-02-19 09:42:00,35.3,28.2,29.93,NW,317,8.0,15.0,75,0.00,,,0.16,104,Wunderground v.1.15,2013-02-19 14:42:00,
2013-02-19 09:47:00,35.2,28.1,29.93,WNW,300,9.0,15.0,75,0.00,,,0.16,142,Wunderground v.1.15,2013-02-19 14:47:00,
2013-02-19 09:52:00,35.3,28.5,29.93,NNW,327,8.0,12.0,76,0.00,,,0.16,141,Wunderground v.1.15,2013-02-19 14:52:00,
2013-02-19 09:57:00,35.3,28.5,29.93,WSW,257,4.0,13.0,76,0.00,,,0.16,146,Wunderground v.1.15,2013-02-19 14:57:00,
2013-02-19 10:02:00,35.5,28.7,29.93,West,269,12.0,15.0,76,0.00,,,0.16,139,Wunderground v.1.15,2013-02-19 15:02:00,
2013-02-19 10:07:00,35.5,28.4,29.93,West,278,11.0,16.0,75,0.00,,,0.16,149,Wunderground v.1.15,2013-02-19 15:07:00,
2013-02-19 10:12:00,35.7,28.9,29.93,WSW,255,9.0,13.0,76,0.00,,,0.16,181,Wunderground v.1.15,2013-02-19 15:12:00,
2013-02-19 10:17:00,35.7,28.6,29.94,West,271,8.0,15.0,75,0.00,,,0.16,95,Wunderground v.1.15,2013-02-19 15:17:00,
2013-02-19 10:22:00,35.7,28.2,29.94,WNW,288,17.0,17.0,74,0.00,,,0.16,127,Wunderground v.1.15,2013-02-19 15:22:00,
2013-02-19 10:27:00,35.6,28.1,29.94,NNW,327,8.0,17.0,74,0.00,,,0.16,105,Wunderground v.1.15,2013-02-19 15:27:00,
2013-02-19 10:32:00,35.6,28.1,29.94,WNW,285,7.0,15.0,74,0.00,,,0.16,104,Wunderground v.1.15,2013-02-19 15:32:00,
2013-02-19 10:35:00,35.5,27.7,29.94,WSW,256,17.0,18.0,73,0.00,,,0.16,116,Wunderground v.1.15,2013-02-19 15:35:00,
2013-02-19 10:40:00,35.3,27.5,29.94,WNW,283,11.0,14.0,73,0.00,,,0.16,70,Wunderground v.1.15,2013-02-19 15:40:00,
2013-02-19 10:41:00,35.3,27.8,29.94,West,264,11.0,14.0,74,0.00,,,0.16,76,Wunderground v.1.15,2013-02-19 15:41:00,
2013-02-19 10:46:00,35.3,27.8,29.95,WSW,257,9.0,18.0,74,0.00,,,0.16,100,Wunderground v.1.15,2013-02-19 15:46:00,
2013-02-19 10:51:00,35.2,28.1,29.95,WNW,282,9.0,11.0,75,0.00,,,0.16,102,Wunderground v.1.15,2013-02-19 15:51:00,
2013-02-19 10:56:00,35.1,28.0,29.95,West,275,19.0,19.0,75,0.00,,,0.16,148,Wunderground v.1.15,2013-02-19 15:56:00,
2013-02-19 11:01:00,34.9,27.1,29.95,NW,310,9.0,18.0,73,0.00,,,0.16,169,Wunderground v.1.15,2013-02-19 16:01:00,
2013-02-19 11:06:00,35.0,27.2,29.95,WNW,295,11.0,20.0,73,0.00,,,0.16,274,Wunderground v.1.15,2013-02-19 16:06:00,
2013-02-19 11:11:00,35.2,26.7,29.95,NW,325,9.0,16.0,71,0.00,,,0.16,206,Wunderground v.1.15,2013-02-19 16:11:00,
2013-02-19 11:16:00,35.0,26.5,29.96,NW,304,5.0,18.0,71,0.00,,,0.16,292,Wunderground v.1.15,2013-02-19 16:16:00,
2013-02-19 11:21:00,35.2,26.7,29.96,West,271,10.0,15.0,71,0.00,,,0.16,311,Wunderground v.1.15,2013-02-19 16:21:00,
2013-02-19 11:26:00,36.0,25.7,29.96,WNW,297,14.0,25.0,66,0.00,,,0.16,311,Wunderground v.1.15,2013-02-19 16:26:00,
2013-02-19 11:31:00,36.1,25.8,29.96,West,279,19.0,21.0,66,0.00,,,0.16,281,Wunderground v.1.15,2013-02-19 16:31:00,
2013-02-19 11:36:00,36.3,26.4,29.96,West,269,16.0,24.0,67,0.00,,,0.16,550,Wunderground v.1.15,2013-02-19 16:36:00,
2013-02-19 11:41:00,36.2,25.9,29.96,WNW,289,12.0,18.0,66,0.00,,,0.16,262,Wunderground v.1.15,2013-02-19 16:41:00,
2013-02-19 11:46:00,36.0,25.7,29.96,West,269,14.0,19.0,66,0.00,,,0.16,255,Wunderground v.1.15,2013-02-19 16:46:00,
2013-02-19 11:51:00,36.2,25.9,29.96,WNW,300,24.0,24.0,66,0.00,,,0.16,355,Wunderground v.1.15,2013-02-19 16:51:00,
2013-02-19 11:57:00,36.4,26.1,29.96,WSW,257,15.0,24.0,66,0.00,,,0.16,302,Wunderground v.1.15,2013-02-19 16:57:00,
2013-02-19 12:02:00,36.3,25.7,29.96,WNW,290,13.0,22.0,65,0.00,,,0.16,381,Wunderground v.1.15,2013-02-19 17:02:00,
2013-02-19 12:07:00,36.1,25.5,29.96,West,273,13.0,23.0,65,0.00,,,0.16,299,Wunderground v.1.15,2013-02-19 17:07:00,
2013-02-19 12:12:00,36.4,25.7,29.97,West,280,11.0,14.0,65,0.00,,,0.16,323,Wunderground v.1.15,2013-02-19 17:12:00,
2013-02-19 12:17:00,36.9,25.9,29.97,West,264,10.0,20.0,64,0.00,,,0.16,355,Wunderground v.1.15,2013-02-19 17:17:00,
2013-02-19 12:22:00,37.3,26.6,29.96,NW,315,10.0,18.0,65,0.00,,,0.16,1063,Wunderground v.1.15,2013-02-19 17:22:00,
2013-02-19 12:27:00,37.5,26.4,29.97,WNW,302,14.0,18.0,64,0.00,,,0.16,301,Wunderground v.1.15,2013-02-19 17:27:00,
2013-02-19 12:32:00,38.0,25.7,29.97,West,276,8.0,22.0,61,0.00,,,0.16,826,Wunderground v.1.15,2013-02-19 17:32:00,
2013-02-19 12:37:00,38.4,25.7,29.96,NW,304,9.0,22.0,60,0.00,,,0.16,865,Wunderground v.1.15,2013-02-19 17:37:00,
2013-02-19 12:42:00,37.8,24.7,29.97,NW,306,10.0,20.0,59,0.00,,,0.16,283,Wunderground v.1.15,2013-02-19 17:42:00,
2013-02-19 12:47:00,37.0,24.4,29.97,NW,317,15.0,20.0,60,0.00,,,0.16,169,Wunderground v.1.15,2013-02-19 17:47:00,
2013-02-19 12:52:00,37.6,25.0,29.97,WNW,290,9.0,14.0,60,0.00,,,0.16,770,Wunderground v.1.15,2013-02-19 17:52:00,
2013-02-19 12:57:00,39.0,25.5,29.97,NW,305,6.0,22.0,58,0.00,,,0.16,865,Wunderground v.1.15,2013-02-19 17:57:00,
2013-02-19 13:02:00,39.9,26.3,29.97,WNW,296,8.0,18.0,58,0.00,,,0.16,921,Wunderground v.1.15,2013-02-19 18:02:00,
2013-02-19 13:07:00,40.1,25.6,29.97,NW,306,18.0,22.0,56,0.00,,,0.16,840,Wunderground v.1.15,2013-02-19 18:07:00,
2013-02-19 13:12:00,39.9,25.5,29.96,WNW,295,9.0,19.0,56,0.00,,,0.16,977,Wunderground v.1.15,2013-02-19 18:12:00,
2013-02-19 13:17:00,39.6,25.6,29.97,West,275,16.0,21.0,57,0.00,,,0.16,963,Wunderground v.1.15,2013-02-19 18:17:00,
2013-02-19 13:22:00,39.6,24.7,29.96,WNW,284,11.0,21.0,55,0.00,,,0.16,882,Wunderground v.1.15,2013-02-19 18:22:00,
2013-02-19 13:27:00,39.9,25.5,29.96,NW,308,14.0,21.0,56,0.00,,,0.16,944,Wunderground v.1.15,2013-02-19 18:27:00,
2013-02-19 13:32:00,40.1,25.6,29.97,WNW,286,10.0,21.0,56,0.00,,,0.16,821,Wunderground v.1.15,2013-02-19 18:32:00,
2013-02-19 13:37:00,39.8,24.9,29.97,NNW,340,10.0,21.0,55,0.00,,,0.16,821,Wunderground v.1.15,2013-02-19 18:37:00,
2013-02-19 13:42:00,39.9,25.5,29.97,NW,324,9.0,18.0,56,0.00,,,0.16,874,Wunderground v.1.15,2013-02-19 18:42:00,
2013-02-19 13:47:00,40.0,24.7,29.97,West,280,7.0,21.0,54,0.00,,,0.16,870,Wunderground v.1.15,2013-02-19 18:47:00,
2013-02-19 13:52:00,38.9,23.7,29.97,WNW,288,17.0,18.0,54,0.00,,,0.16,183,Wunderground v.1.15,2013-02-19 18:52:00,
2013-02-19 13:57:00,39.9,25.5,29.97,NW,311,18.0,20.0,56,0.00,,,0.16,800,Wunderground v.1.15,2013-02-19 18:57:00,
2013-02-19 14:02:00,40.1,24.8,29.97,WNW,298,15.0,26.0,54,0.00,,,0.16,823,Wunderground v.1.15,2013-02-19 19:02:00,
2013-02-19 14:07:00,38.8,24.4,29.97,WNW,282,10.0,26.0,56,0.00,,,0.16,758,Wunderground v.1.15,2013-02-19 19:07:00,
2013-02-19 14:11:00,39.3,24.9,29.97,WNW,289,5.0,17.0,56,0.00,,,0.16,218,Wunderground v.1.15,2013-02-19 19:11:00,
2013-02-19 14:17:00,39.9,23.2,29.97,NW,315,17.0,26.0,51,0.00,,,0.16,796,Wunderground v.1.15,2013-02-19 19:17:00,
2013-02-19 14:22:00,39.5,22.4,29.97,NW,304,21.0,25.0,50,0.00,,,0.16,738,Wunderground v.1.15,2013-02-19 19:22:00,
2013-02-19 14:27:00,39.2,23.0,29.97,West,280,12.0,25.0,52,0.00,,,0.16,765,Wunderground v.1.15,2013-02-19 19:27:00,
2013-02-19 14:32:00,39.5,22.8,29.97,NW,317,14.0,22.0,51,0.00,,,0.16,243,Wunderground v.1.15,2013-02-19 19:32:00,
2013-02-19 14:37:00,39.4,23.7,29.97,WSW,252,8.0,22.0,53,0.00,,,0.16,214,Wunderground v.1.15,2013-02-19 19:37:00,
2013-02-19 14:42:00,39.9,22.7,29.98,WSW,257,16.0,23.0,50,0.00,,,0.16,759,Wunderground v.1.15,2013-02-19 19:42:00,
2013-02-19 14:47:00,40.1,22.9,29.98,WNW,287,16.0,23.0,50,0.00,,,0.16,135,Wunderground v.1.15,2013-02-19 19:47:00,
2013-02-19 14:52:00,39.9,23.2,29.98,NW,317,15.0,15.0,51,0.00,,,0.16,258,Wunderground v.1.15,2013-02-19 19:52:00,
2013-02-19 14:57:00,39.5,22.8,29.98,NNW,342,13.0,19.0,51,0.00,,,0.16,705,Wunderground v.1.15,2013-02-19 19:57:00,
2013-02-19 15:02:00,39.2,21.6,29.98,WNW,298,12.0,15.0,49,0.00,,,0.16,661,Wunderground v.1.15,2013-02-19 20:02:00,
2013-02-19 15:07:00,39.6,22.0,29.99,West,275,17.0,19.0,49,0.00,,,0.16,654,Wunderground v.1.15,2013-02-19 20:07:00,
2013-02-19 15:12:00,39.6,22.0,29.99,NNW,327,9.0,17.0,49,0.00,,,0.16,621,Wunderground v.1.15,2013-02-19 20:12:00,
2013-02-19 15:17:00,39.5,22.4,29.99,NW,315,9.0,21.0,50,0.00,,,0.16,650,Wunderground v.1.15,2013-02-19 20:17:00,
2013-02-19 15:22:00,39.6,22.0,29.99,WNW,297,13.0,18.0,49,0.00,,,0.16,621,Wunderground v.1.15,2013-02-19 20:22:00,
2013-02-19 15:27:00,40.0,21.9,29.99,North,351,15.0,26.0,48,0.00,,,0.16,621,Wunderground v.1.15,2013-02-19 20:27:00,
2013-02-19 15:32:00,40.2,21.0,29.99,WNW,291,15.0,21.0,46,0.00,,,0.16,573,Wunderground v.1.15,2013-02-19 20:32:00,
2013-02-19 15:37:00,40.0,21.4,30.00,WNW,284,21.0,23.0,47,0.00,,,0.16,531,Wunderground v.1.15,2013-02-19 20:37:00,
2013-02-19 15:42:00,39.4,21.3,30.00,WNW,291,10.0,23.0,48,0.00,,,0.16,102,Wunderground v.1.15,2013-02-19 20:42:00,
2013-02-19 15:47:00,39.1,21.5,30.00,NW,325,17.0,23.0,49,0.00,,,0.16,139,Wunderground v.1.15,2013-02-19 20:47:00,
2013-02-19 15:52:00,38.7,20.7,30.00,NW,317,19.0,20.0,48,0.00,,,0.16,141,Wunderground v.1.15,2013-02-19 20:52:00,
2013-02-19 15:57:00,39.0,21.4,30.00,NW,304,12.0,20.0,49,0.00,,,0.16,483,Wunderground v.1.15,2013-02-19 20:57:00,
2013-02-19 16:02:00,39.5,21.9,30.00,WNW,293,15.0,17.0,49,0.00,,,0.16,506,Wunderground v.1.15,2013-02-19 21:02:00,
2013-02-19 16:07:00,39.5,20.9,30.01,West,276,17.0,21.0,47,0.00,,,0.16,469,Wunderground v.1.15,2013-02-19 21:07:00,
2013-02-19 16:12:00,39.5,21.9,30.01,West,281,6.0,16.0,49,0.00,,,0.16,466,Wunderground v.1.15,2013-02-19 21:12:00,
2013-02-19 16:17:00,39.2,21.6,30.01,NW,311,13.0,17.0,49,0.00,,,0.16,100,Wunderground v.1.15,2013-02-19 21:17:00,
2013-02-19 16:22:00,38.9,20.4,30.01,NW,317,16.0,20.0,47,0.00,,,0.16,410,Wunderground v.1.15,2013-02-19 21:22:00,
2013-02-19 16:27:00,39.0,20.5,30.02,NW,324,14.0,20.0,47,0.00,,,0.16,396,Wunderground v.1.15,2013-02-19 21:27:00,
2013-02-19 16:32:00,39.1,20.0,30.02,WNW,286,15.0,22.0,46,0.00,,,0.16,353,Wunderground v.1.15,2013-02-19 21:32:00,
2013-02-19 16:37:00,39.1,19.5,30.02,West,277,13.0,22.0,45,0.00,,,0.16,341,Wunderground v.1.15,2013-02-19 21:37:00,
2013-02-19 16:42:00,38.8,19.2,30.03,WNW,299,14.0,19.0,45,0.00,,,0.16,316,Wunderground v.1.15,2013-02-19 21:42:00,
2013-02-19 16:47:00,38.6,19.6,30.03,WNW,300,13.0,19.0,46,0.00,,,0.16,54,Wunderground v.1.15,2013-02-19 21:47:00,
2013-02-19 16:52:00,38.1,18.6,30.03,WNW,290,12.0,24.0,45,0.00,,,0.16,70,Wunderground v.1.15,2013-02-19 21:52:00,
2013-02-19 16:57:00,38.0,19.5,30.03,WNW,302,6.0,24.0,47,0.00,,,0.16,274,Wunderground v.1.15,2013-02-19 21:57:00,
2013-02-19 17:02:00,38.1,19.6,30.03,NW,309,7.0,21.0,47,0.00,,,0.16,237,Wunderground v.1.15,2013-02-19 22:02:00,
2013-02-19 17:07:00,38.0,20.0,30.04,NW,304,8.0,23.0,48,0.00,,,0.16,227,Wunderground v.1.15,2013-02-19 22:07:00,
2013-02-19 17:12:00,38.2,20.2,30.04,NW,313,13.0,18.0,48,0.00,,,0.16,197,Wunderground v.1.15,2013-02-19 22:12:00,
2013-02-19 17:17:00,38.2,20.2,30.04,NNW,347,9.0,24.0,48,0.00,,,0.16,186,Wunderground v.1.15,2013-02-19 22:17:00,
2013-02-19 17:22:00,38.2,19.7,30.04,NW,312,8.0,21.0,47,0.00,,,0.16,83,Wunderground v.1.15,2013-02-19 22:22:00,
2013-02-19 17:27:00,38.2,20.2,30.04,NW,304,7.0,21.0,48,0.00,,,0.16,137,Wunderground v.1.15,2013-02-19 22:27:00,
2013-02-19 17:32:00,38.2,19.7,30.05,WNW,285,7.0,17.0,47,0.00,,,0.16,76,Wunderground v.1.15,2013-02-19 22:32:00,
2013-02-19 17:37:00,37.9,19.4,30.05,NW,309,20.0,20.0,47,0.00,,,0.16,91,Wunderground v.1.15,2013-02-19 22:37:00,
2013-02-19 17:42:00,37.7,18.8,30.05,NW,314,12.0,17.0,46,0.00,,,0.16,77,Wunderground v.1.15,2013-02-19 22:42:00,
2013-02-19 17:47:00,37.5,18.6,30.05,NW,311,12.0,19.0,46,0.00,,,0.16,56,Wunderground v.1.15,2013-02-19 22:47:00,
2013-02-19 17:52:00,37.2,18.8,30.05,West,274,9.0,13.0,47,0.00,,,0.16,40,Wunderground v.1.15,2013-02-19 22:52:00,
2013-02-19 17:57:00,37.0,18.1,30.06,WNW,292,11.0,24.0,46,0.00,,,0.16,28,Wunderground v.1.15,2013-02-19 22:57:00,
2013-02-19 18:02:00,36.8,17.9,30.06,NW,314,13.0,20.0,46,0.00,,,0.16,19,Wunderground v.1.15,2013-02-19 23:02:00,
2013-02-19 18:07:00,36.4,18.6,30.06,NW,325,9.0,20.0,48,0.00,,,0.16,14,Wunderground v.1.15,2013-02-19 23:07:00,
2013-02-19 18:12:00,36.0,18.2,30.07,North,10,7.0,17.0,48,0.00,,,0.16,11,Wunderground v.1.15,2013-02-19 23:12:00,
2013-02-19 18:17:00,35.6,18.8,30.07,WNW,302,9.0,17.0,50,0.00,,,0.16,9,Wunderground v.1.15,2013-02-19 23:17:00,
2013-02-19 18:22:00,35.3,18.5,30.07,NW,325,9.0,18.0,50,0.00,,,0.16,5,Wunderground v.1.15,2013-02-19 23:22:00,
2013-02-19 18:27:00,35.1,18.3,30.08,NW,318,7.0,18.0,50,0.00,,,0.16,0,Wunderground v.1.15,2013-02-19 23:27:00,
2013-02-19 18:32:00,34.8,18.5,30.08,NW,325,7.0,14.0,51,0.00,,,0.16,0,Wunderground v.1.15,2013-02-19 23:32:00,
2013-02-19 18:37:00,34.5,18.2,30.08,WNW,282,11.0,20.0,51,0.00,,,0.16,0,Wunderground v.1.15,2013-02-19 23:37:00,
2013-02-19 18:42:00,34.3,18.5,30.09,NNW,332,14.0,17.0,52,0.00,,,0.16,0,Wunderground v.1.15,2013-02-19 23:42:00,
2013-02-19 18:47:00,34.1,18.3,30.09,NW,320,5.0,18.0,52,0.00,,,0.16,0,Wunderground v.1.15,2013-02-19 23:47:00,
2013-02-19 18:52:00,33.7,18.4,30.10,NNW,338,8.0,11.0,53,0.00,,,0.16,0,Wunderground v.1.15,2013-02-19 23:52:00,
2013-02-19 18:57:00,33.5,18.2,30.10,NW,313,8.0,15.0,53,0.00,,,0.16,0,Wunderground v.1.15,2013-02-19 23:57:00,
2013-02-19 19:02:00,33.3,18.4,30.10,NW,322,10.0,10.0,54,0.00,,,0.16,0,Wunderground v.1.15,2013-02-20 00:02:00,
2013-02-19 19:07:00,33.1,18.2,30.11,WNW,296,6.0,12.0,54,0.00,,,0.16,0,Wunderground v.1.15,2013-02-20 00:07:00,
2013-02-19 19:12:00,33.0,18.6,30.11,NW,319,2.0,12.0,55,0.00,,,0.16,0,Wunderground v.1.15,2013-02-20 00:12:00,
2013-02-19 19:17:00,32.8,18.4,30.11,WNW,298,4.0,13.0,55,0.00,,,0.16,0,Wunderground v.1.15,2013-02-20 00:17:00,
2013-02-19 19:23:00,32.6,18.6,30.12,WNW,303,6.0,14.0,56,0.00,,,0.16,0,Wunderground v.1.15,2013-02-20 00:23:00,
2013-02-19 19:28:00,32.5,18.5,30.12,NW,320,3.0,14.0,56,0.00,,,0.16,0,Wunderground v.1.15,2013-02-20 00:28:00,
2013-02-19 19:33:00,32.4,18.4,30.12,NW,309,7.0,11.0,56,0.00,,,0.16,0,Wunderground v.1.15,2013-02-20 00:33:00,
2013-02-19 19:38:00,32.3,18.8,30.12,NNW,331,3.0,12.0,57,0.00,,,0.16,0,Wunderground v.1.15,2013-02-20 00:38:00,
2013-02-19 19:43:00,32.1,19.0,30.12,WNW,303,7.0,11.0,58,0.00,,,0.16,0,Wunderground v.1.15,2013-02-20 00:43:00,
2013-02-19 19:48:00,31.9,18.8,30.12,WNW,295,7.0,11.0,58,0.00,,,0.16,0,Wunderground v.1.15,2013-02-20 00:48:00,
2013-02-19 19:53:00,31.8,18.7,30.12,NNW,333,8.0,12.0,58,0.00,,,0.16,0,Wunderground v.1.15,2013-02-20 00:53:00,
2013-02-19 19:58:00,31.7,18.6,30.12,NW,320,11.0,12.0,58,0.00,,,0.16,0,Wunderground v.1.15,2013-02-20 00:58:00,
2013-02-19 20:03:00,31.4,18.3,30.13,NW,320,4.0,8.0,58,0.00,,,0.16,0,Wunderground v.1.15,2013-02-20 01:03:00,
2013-02-19 20:08:00,31.2,18.5,30.13,NW,319,7.0,8.0,59,0.00,,,0.16,0,Wunderground v.1.15,2013-02-20 01:08:00,
2013-02-19 20:13:00,31.1,18.4,30.13,NW,315,4.0,11.0,59,0.00,,,0.16,0,Wunderground v.1.15,2013-02-20 01:13:00,
2013-02-19 20:18:00,31.0,18.3,30.13,NW,317,9.0,13.0,59,0.00,,,0.16,0,Wunderground v.1.15,2013-02-20 01:18:00,
2013-02-19 20:23:00,30.9,18.2,30.13,NNW,327,6.0,9.0,59,0.00,,,0.16,0,Wunderground v.1.15,2013-02-20 01:23:00,
2013-02-19 20:28:00,30.8,18.5,30.13,WNW,299,6.0,9.0,60,0.00,,,0.16,0,Wunderground v.1.15,2013-02-20 01:28:00,
2013-02-19 20:33:00,30.7,18.4,30.13,NNW,339,3.0,11.0,60,0.00,,,0.16,0,Wunderground v.1.15,2013-02-20 01:33:00,
2013-02-19 20:38:00,30.6,18.3,30.14,North,5,5.0,11.0,60,0.00,,,0.16,0,Wunderground v.1.15,2013-02-20 01:38:00,
2013-02-19 20:43:00,30.4,18.5,30.14,NNW,342,6.0,9.0,61,0.00,,,0.16,0,Wunderground v.1.15,2013-02-20 01:43:00,
2013-02-19 20:48:00,30.3,18.5,30.14,NW,306,4.0,10.0,61,0.00,,,0.16,0,Wunderground v.1.15,2013-02-20 01:48:00,
2013-02-19 20:53:00,30.3,18.5,30.13,NW,313,7.0,11.0,61,0.00,,,0.16,0,Wunderground v.1.15,2013-02-20 01:53:00,
2013-02-19 20:58:00,30.2,18.4,30.14,NNW,333,4.0,11.0,61,0.00,,,0.16,0,Wunderground v.1.15,2013-02-20 01:58:00,
2013-02-19 21:03:00,30.0,18.5,30.14,North,355,3.0,7.0,62,0.00,,,0.16,0,Wunderground v.1.15,2013-02-20 02:03:00,
2013-02-19 21:08:00,29.8,18.4,30.14,NW,322,4.0,9.0,62,0.00,,,0.16,0,Wunderground v.1.15,2013-02-20 02:08:00,
2013-02-19 21:13:00,29.6,18.2,30.14,NNW,331,2.0,6.0,62,0.00,,,0.16,0,Wunderground v.1.15,2013-02-20 02:13:00,
2013-02-19 21:18:00,29.3,18.3,30.14,NNW,338,3.0,6.0,63,0.00,,,0.16,0,Wunderground v.1.15,2013-02-20 02:18:00,
2013-02-19 21:23:00,29.1,18.4,30.14,NNW,335,5.0,5.0,64,0.00,,,0.16,0,Wunderground v.1.15,2013-02-20 02:23:00,
2013-02-19 21:28:00,28.9,18.6,30.14,NW,323,5.0,7.0,65,0.00,,,0.16,0,Wunderground v.1.15,2013-02-20 02:28:00,
2013-02-19 21:33:00,28.8,18.5,30.14,NW,324,2.0,7.0,65,0.00,,,0.16,0,Wunderground v.1.15,2013-02-20 02:33:00,
2013-02-19 21:38:00,28.7,18.8,30.14,NNW,344,3.0,9.0,66,0.00,,,0.16,0,Wunderground v.1.15,2013-02-20 02:38:00,
2013-02-19 21:43:00,28.6,18.7,30.14,NNW,337,6.0,8.0,66,0.00,,,0.16,0,Wunderground v.1.15,2013-02-20 02:43:00,
2013-02-19 21:48:00,28.5,18.9,30.14,NNW,331,4.0,8.0,67,0.00,,,0.16,0,Wunderground v.1.15,2013-02-20 02:48:00,
2013-02-19 21:53:00,28.3,18.7,30.14,NW,324,6.0,7.0,67,0.00,,,0.16,0,Wunderground v.1.15,2013-02-20 02:53:00,
2013-02-19 21:58:00,28.1,18.9,30.14,NW,321,2.0,7.0,68,0.00,,,0.16,0,Wunderground v.1.15,2013-02-20 02:58:00,
2013-02-19 22:03:00,27.9,19.0,30.14,NNW,342,3.0,5.0,69,0.00,,,0.16,0,Wunderground v.1.15,2013-02-20 03:03:00,
2013-02-19 22:08:00,27.6,18.8,30.14,NNW,343,3.0,6.0,69,0.00,,,0.16,0,Wunderground v.1.15,2013-02-20 03:08:00,
2013-02-19 22:13:00,27.5,18.7,30.15,NW,308,5.0,6.0,69,0.00,,,0.16,0,Wunderground v.1.15,2013-02-20 03:13:00,
2013-02-19 22:18:00,27.5,19.0,30.15,NW,323,4.0,7.0,70,0.00,,,0.16,0,Wunderground v.1.15,2013-02-20 03:18:00,
2013-02-19 22:23:00,27.5,19.0,30.15,NNW,340,2.0,8.0,70,0.00,,,0.16,0,Wunderground v.1.15,2013-02-20 03:23:00,
2013-02-19 22:28:00,27.4,18.9,30.15,NW,304,6.0,8.0,70,0.00,,,0.16,0,Wunderground v.1.15,2013-02-20 03:28:00,
2013-02-19 22:33:00,27.4,18.9,30.15,NW,325,5.0,10.0,70,0.00,,,0.16,0,Wunderground v.1.15,2013-02-20 03:33:00,
2013-02-19 22:38:00,27.3,18.8,30.15,NW,310,2.0,10.0,70,0.00,,,0.16,0,Wunderground v.1.15,2013-02-20 03:38:00,
2013-02-19 22:43:00,27.2,18.7,30.16,NW,312,4.0,9.0,70,0.00,,,0.16,0,Wunderground v.1.15,2013-02-20 03:43:00,
2013-02-19 22:48:00,27.0,18.8,30.16,NW,311,5.0,9.0,71,0.00,,,0.16,0,Wunderground v.1.15,2013-02-20 03:48:00,
2013-02-19 22:53:00,27.0,18.8,30.16,NNW,329,4.0,8.0,71,0.00,,,0.16,0,Wunderground v.1.15,2013-02-20 03:53:00,
2013-02-19 22:58:00,26.9,18.7,30.16,North,355,5.0,9.0,71,0.00,,,0.16,0,Wunderground v.1.15,2013-02-20 03:58:00,
2013-02-19 23:03:00,26.8,18.7,30.16,NNW,332,4.0,8.0,71,0.00,,,0.16,0,Wunderground v.1.15,2013-02-20 04:03:00,
2013-02-19 23:08:00,26.7,18.6,30.17,WNW,300,8.0,13.0,71,0.00,,,0.16,0,Wunderground v.1.15,2013-02-20 04:08:00,
2013-02-19 23:13:00,26.7,18.6,30.17,NW,316,11.0,12.0,71,0.00,,,0.16,0,Wunderground v.1.15,2013-02-20 04:13:00,
2013-02-19 23:18:00,26.6,18.1,30.17,NNW,347,6.0,12.0,70,0.00,,,0.16,0,Wunderground v.1.15,2013-02-20 04:18:00,
2013-02-19 23:23:00,26.6,18.1,30.17,NNW,341,10.0,10.0,70,0.00,,,0.16,0,Wunderground v.1.15,2013-02-20 04:23:00,
2013-02-19 23:28:00,26.5,18.0,30.17,NNW,346,7.0,12.0,70,0.00,,,0.16,0,Wunderground v.1.15,2013-02-20 04:28:00,
2013-02-19 23:33:00,26.4,17.9,30.17,NW,324,6.0,13.0,70,0.00,,,0.16,0,Wunderground v.1.15,2013-02-20 04:33:00,
2013-02-19 23:38:00,26.3,17.8,30.17,NNW,336,5.0,13.0,70,0.00,,,0.16,0,Wunderground v.1.15,2013-02-20 04:38:00,
2013-02-19 23:43:00,26.2,17.4,30.18,WNW,289,7.0,15.0,69,0.00,,,0.16,0,Wunderground v.1.15,2013-02-20 04:43:00,
2013-02-19 23:48:00,26.2,17.4,30.18,NNW,333,7.0,15.0,69,0.00,,,0.16,0,Wunderground v.1.15,2013-02-20 04:48:00,
2013-02-19 23:53:00,26.1,17.3,30.18,NW,323,8.0,13.0,69,0.00,,,0.16,0,Wunderground v.1.15,2013-02-20 04:53:00,
2013-02-19 23:58:00,25.9,17.1,30.18,NNW,335,6.0,13.0,69,0.00,,,0.16,0,Wunderground v.1.15,2013-02-20 04:58:00,